Find Kosmos-2315

NORAD ID: 23603 Int'l Des: 1995-032 Owner: VMFR/VKS Country: RU operational
LEOCIRCULARPOLAR

Live Position

Loading 3D Globe...

About Kosmos-2315

Description loading...

Upcoming Passes

Passes for default location (London). Set your location on the main map for personalized predictions.

Altitude History

Loading altitude history...

Two-Line Element Set

1 23603U 95032A 26105.95759454 .00000070 00000-0 59515-4 0 9991
2 23603 82.9009 297.8744 0031541 32.3725 138.8870 13.73087908542159
Epoch: Apr 15, 2026 • Age: 11 hours

Current Status

Altitude 975.0 km
Velocity 7.37 km/s
Sub-Earth Point -8.68°S, 63.42°W
Launch Date Jul 5, 1995
Age 30.7 years
Type other

Technical Details

Classification Payload
Mass 840.00 kg
Dry Mass 840.00 kg
Total Mass 840.00 kg
Length 5.00 m
Diameter 2.10 m
Span 17.00 m
Shape Cyl + Ant
Manufacturer POL
Bus Type KAUR-1 11F643N
Phase Status In Orbit
Owner/State VMFR/VKS/RU

Most Searched